Other Public Products
Issued by NWS Grand Forks, ND

Home | Current Version | Previous Version | Graphics & Text | Print | Product List | Glossary On
Versions: 1 2 3 4 5 6 7 8 9 10 11 12 13 14 15 16 17 18 19 20 21 22 23 24 25 26 27 28 29 30 31 32 33 34 35 36 37 38 39 40 41 42 43 44 45 46 47 48 49 50
000
FPUS83 KFGF 162331
OPUFGF
PRAIRIE TO PINES WEATHER ROUNDUP
NATIONAL WEATHER SERVICE EASTERN NORTH DAKOTA/GRAND FORKS ND
500 PM CST MON JAN 16 2017

 **SATELLITE DATA USED TO AUGMENT SKY COVER AT AUTOMATED STATIONS**
 *****  WEATHER ACROSS EASTERN NORTH DAKOTA  *****

CITY           SKY/WX    TMP DP  RH WIND       PRES   REMARKS
GRAND FORKS    FAIR      17  10  74 W5        30.04S WCI  10
GRAND FORKS AF FAIR      17  10  72 NW5       30.04S WCI  10
GRAND CITY NWS NOT AVBL
BUXTON           N/A    N/A N/A N/A CALM        N/A
DEVILS LAKE    FAIR      14  10  84 W9        30.04R WCI   2
FARGO          FAIR      18  10  71 SW3       30.05R
WAHPETON ARPT  FAIR      18  12  79 W3        30.07R
$$

 *****  WEATHER ACROSS CENTRAL AND WESTERN NORTH DAKOTA  *****

CITY           SKY/WX    TMP DP  RH WIND       PRES   REMARKS
JAMESTOWN      FAIR      15  10  80 W8        30.02S WCI   4
BISMARCK       FAIR      25  16  68 W10       30.09R WCI  15
MINOT          FAIR      25  18  74 W10       30.05R WCI  15
MINOT AFB      FAIR      23  17  78 NW15      30.04R WCI  10
GARRISON         N/A     18  13  80 NW3       30.06R
WILLISTON      FAIR      19  13  77 SW3       30.10F
DICKINSON      FAIR      19  13  77 W10       30.06R WCI   7
HETTINGER      FAIR      19  13  77 NW10      30.08R WCI   7
$$

 *****  OTHER OBSERVATIONS NORTHEAST NORTH DAKOTA  *****

CITY           SKY/WX    TMP DP  RH WIND       PRES   REMARKS
WALHALLA       NOT AVBL
LANGDON        NOT AVBL
CAVALIER         N/A     14   7  73 S3        30.05R
GRAFTON        FAIR      14   9  79 CALM      30.06S
CANDO          NOT AVBL
FORT TOTTEN      N/A     21  12  67 W3        29.95S
ROLLA            N/A    N/A N/A N/A MISG        N/A
RUGBY            N/A     10   9  92 NW5       30.04R WCI   2
 ***** THE ABOVE OBSERVATIONS ARE NON NWS ARE NOT QUALITY
        CONTROLLED AND MAY MIS-REPORT RAIN FOR SNOW...
$$

 *****  OTHER OBSERVATIONS SOUTHEAST NORTH DAKOTA *****

CITY           SKY/WX    TMP DP  RH WIND       PRES   REMARKS
COOPERSTOWN    FAIR      10   7  85 W7        30.02S WCI   0
VALLEY CITY    FAIR      14  12  92 W7        30.04S WCI   4
OAKES          NOT AVBL
GWINNER        FAIR      19  14  79 NW8       30.05R WCI   9
SHEYENNE NWR     N/A     21   9  59 N3        29.95S
BUFFALO          N/A     13   6  74 CALM        N/A
WYNDMERE         N/A     16  10  79 SW3         N/A
 ***** THE ABOVE OBSERVATIONS ARE NON NWS ARE NOT QUALITY
       CONTROLLED AND MAY MIS-REPORT RAIN FOR SNOW...
$$

  *****  WEATHER ACROSS NORTHERN MINNESOTA  *****

CITY           SKY/WX    TMP DP  RH WIND       PRES   REMARKS
FLAG ISLAND    FAIR      18   9  68 CALM      30.03S
WARROAD        FAIR      12   9  85 CALM      30.04S
ROSEAU         FAIR      16   9  73 CALM      30.03F
HALLOCK        FAIR       9   7  92 S6        30.05R WCI  -1
THF RVR FALLS  FAIR      18   9  68 CALM      30.04S
HALSTAD          N/A     15   9  77 W2          N/A
FOSSTON        FAIR      12   9  85 CALM      30.03R
BAUDETTE       FAIR      20  11  68 E3        30.01S
WASKISH        FAIR      18  14  86 CALM      30.03R
CROOKSTON      FAIR      14   9  79 CALM      30.06S
$$
  *****  WEATHER ACROSS CENTRAL AND WEST MINNESOTA  *****

CITY           SKY/WX    TMP DP  RH WIND       PRES   REMARKS
BEMIDJI        FAIR      21  15  78 CALM      30.00S
PARK RAPIDS    FAIR      20  13  74 CALM      30.00R
WADENA         FAIR      23  18  80 CALM      30.03R
DETROIT LAKES  FAIR      25  18  74 SW3       30.03R
MOORHEAD       FAIR      14   9  79 S5        30.06R WCI   6
FERGUS FALLS   FAIR      18  12  79 CALM      30.09S
ELBOW LAKE     FAIR      19  16  87 NE3       30.04S FOG
MORRIS MN      FAIR      21  18  86 E6        30.03S WCI  14
STAPLES        FAIR      21  16  79 CALM      30.03S
WHEATON        FAIR      25  19  80 CALM      30.08R
$$
  *****  WEATHER ELSEWHERE ACROSS MINNESOTA  *****

CITY           SKY/WX    TMP DP  RH WIND       PRES   REMARKS
DULUTH         FAIR      30  18  60 S5        30.04R
INTRNTL FALLS  FAIR      24  14  65 NE7       30.02S WCI  16
ELY            FAIR      27  19  74 CALM      30.02S
CLOQUET        FAIR      28  16  59 CALM      30.04F
BRAINERD       FAIR      28  17  63 CALM      30.04R
HIBBING        FAIR      23  16  74 CALM      30.01F
ALEXANDRIA     FAIR      28  18  66 N6        30.03R WCI  22
SAINT CLOUD    CLOUDY    26  22  84 N6        30.04S WCI  19
MINNEAPOLIS    CLOUDY    31  23  72 NE6       30.04F
$$

  *****  WEATHER ACROSS SOUTH DAKOTA  *****

CITY           SKY/WX    TMP DP  RH WIND       PRES   REMARKS
SIOUX FALLS    FRZ RAIN  31  29  92 N6        29.99R FOG
BROOKINGS      MOCLDY    27  23  86 NW8       29.98  WCI  18
WATERTOWN      FAIR      21  17  84 N3        29.99S
HURON          FAIR      18  11  74 NW7       30.05R WCI   9
SISSETON         N/A     20  17  88 CALM      30.04S
ABERDEEN       FAIR      19   7  59 NW3       30.06R
MITCHELL       FAIR      25  17  72 NW10      30.04R WCI  15
PIERRE         FAIR      20  13  74 NW10      30.06R WCI   9
MOBRIDGE       FAIR      17   8  67 NW6       30.05R WCI   9
RAPID CITY     FAIR      30  18  60 N17       30.06R WCI  18
$$

  *****  SOME WEATHER IN NEARBY STATES *****

CITY           SKY/WX    TMP DP  RH WIND       PRES   REMARKS
GLASGOW MT     FAIR      12   6  77 S9        30.06F WCI   0
GREAT FALLS MT FAIR      34  19  54 SW21      29.99S WCI  22
CHEYENNE WY    FAIR      36  10  34 N9        30.05R
SCOTTSBLUFF NE FAIR      40  19  43 N9        30.07R
OMAHA NE       CLOUDY    34  30  85 N10       29.90S FOG
DES MOINES IA  DRZL/FOG  34  33  96 NE6       29.89S VSB 1/4
DAVENPORT IA   CLOUDY    36  34  92 E14       29.95S FOG
CHICAGO IL     LGT RAIN  36  35  96 NE7       30.05F FOG
EAU CLAIRE WI  MIX PCPN  30  19  63 NE7       30.05F WCI  23
LA CROSSE WI   RAIN      36  31  82 W3        30.02F
$$

  *****  SOME NATIONAL WEATHER *****

CITY           SKY/WX    TMP DP  RH WIND       PRES   REMARKS
LA GUARDIA NY  MOCLDY    43  24  47 SW12      30.35R
RALEIGH NC     CLOUDY    50  34  54 S7        30.37R
ATLANTA GA     MOCLDY    68  54  60 S6        30.23R
NEW ORLEANS LA MOCLDY    73  66  78 S13       30.11R
OKLAHOMA CITY  FAIR      48  34  58 W16       29.99R
ALBUQUERQUE NM PTSUNNY   48  35  60 S7        29.98R
SALT LAKE CITY FAIR      29  19  66 W8        30.26S WCI  21
LOS ANGELES CA FAIR      60  52  74 W13       30.02F
BOISE ID       FAIR      11   5  77 SW6       30.43F HAZE    WCI   1
SEATTLE WA     CLOUDY    43  34  70 S6        30.05F
$$

*** WEATHER ACROSS MANITOBA...SASKATCHEWAN AND ONTARIO ***
                ***ONTARIO***

CITY           SKY/WX    TMP DP  RH WIND       PRES   REMARKS
GERALDTON      PTCLDY    23  18  80 NE5       30.09S WCI  17
THUNDER BAY    PTCLDY    23  18  80 NE6       30.09R WCI  16
SIOUX LOOKOUT  PTCLDY    18  12  79 VRB2      30.03R
TORONTO        MOCLDY    36  19  51 CALM      30.25S
BIG TROUT LK   CLOUDY    18  18 100 SE10      30.06S WCI   6
PICKLE LAKE    CLOUDY    19  18  93 SE5       30.06R FOG     WCI  13
DRYDEN         CLEAR     21  14  73 S7        30.01S WCI  13
KENORA         PTCLDY    19  12  73 S6        30.01S WCI  11
$$
                *** MANITOBA***

CITY           SKY/WX    TMP DP  RH WIND       PRES   REMARKS
BRANDON        PTCLDY    19  14  79 W13       30.01S WCI   7
DAUPHIN        CLEAR     28  21  74 W12       29.98S WCI  18
ISLAND LAKE    PTCLDY    21  19  93 SE6       29.96S WCI  14
PILOT MOUND      N/A     18  12  79 NW6         N/A  WCI   9
THE PAS        MOCLDY    28  21  74 S8        29.83S WCI  20
THOMPSON       LGT SNOW  23  21  93 S8        29.80F WCI  14
WINNIPEG       PTCLDY    16  10  79 VRB2      30.04S
LYNN LAKE      CLOUDY    27  25  93 S8        29.59F WCI  18
CHURCHILL      FLURRIES   5   3  92 S20       29.72F WCI -15
GILLAM         FOG       14  12  92 S7        29.84F VSB 3/4 WCI   4
$$
                ***SASKATCHEWAN***

CITY           SKY/WX    TMP DP  RH WIND       PRES   REMARKS
ESTEVAN        PTCLDY    16  12  86 SW8       30.06S WCI   5
KINDERSLEY     CLOUDY    25  18  74 S14       29.81F WCI  13
LLOYDMINSTER   MOCLDY    30  19  64 S13       29.71F WCI  20
PRINCE ALBERT  MOCLDY    28  19  69 SW8       29.82F WCI  20
REGINA         MOCLDY    18  14  86 SE14      29.99F WCI   4
YORKTON        CLEAR     27  19  74 S10       29.96F WCC1F1C2F2C3F3C4F4C5F5C6F6C7F7C8F8C9F9CaFaCbFbCcFcCdFdCe!



USA.gov is the U.S. government's official web portal to all federal, state and local government web resources and services.